Погода в Васильковке

Украина / Днепропетровская область     48°12′29″N   36°01′46″E
темп.,
°C
ветер,
м/с
пор.,
м/с
влажн.,
%
обл.,
%
осадки,
мм/ч
давл.,
гПа
погр.,
м
27 ноября, сб
сб2723:00+3ююв6168596 0.0 1014431
02:00+4ююв71788100 0.0 1012462
05:00+6ююв91986100 0.0 1009732
08:00+6ююв91991100 1.9 1008717
11:00+8ююв91784100 1.5 1006732
14:00+10ююв61188100 1.5 1005450
17:00+10ю5119176 0.1 1006310
20:00+9ю51393100 0.1 1007298
28 ноября, вс
вс2823:00+8ю5119626 0.0 1007242
02:00+9юз6993100 0.0 1007385
05:00+8ююз369415 0.0 1008130
08:00+7ююз359714 0.0 1009117
11:00+11ююз46760 0.0 1009349
14:00+13ю36643 0.0 1009544
17:00+10ююв4788100 0.0 1009104
20:00+10ююв4994100 0.2 1009209
29 ноября, пн
пн2923:00+10юв51197100 2.4 1007483
02:00+11ююв51197100 4.1 1005517
05:00+11ююв7139293 0.0 1004530
08:00+10ю71590100 0.0 1003532
11:00+12ю101991100 2.4 1000747
14:00+14ю11197377 3.2 997880
17:00+13ю1019775 0.3 995679
20:00+14ююз111981100 0.3 9931216
30 ноября, вт
вт3023:00+12юз91582100 0.5 994942
02:00+9зюз6107994 0.6 997486
05:00+6зюз6117282 0.0 999503
08:00+6зюз51168100 0.0 1000502
11:00+7зюз61051100 0.0 1002696
14:00+8зюз584459 0.0 1000737
17:00+4зюз4957100 0.0 1000244
20:00+4з5958100 0.0 1000420
1 декабря, ср
ср123:00+2зсз61265100 0.0 1000821
02:00+1зсз51078100 0.0 1003824
05:000з611786 0.0 1004493
08:00−1зюз6117899 0.0 1006504
11:00+3зюз6105116 0.0 1007709
14:00+4юз81355100 0.0 10051329
17:00+3зюз7126387 0.0 1005801
20:00+2зюз6126472 0.0 1007501